Change the Weather History Date:

Friday, July 12, 2013

  Actual Average (KBFD) Record (KBFD)
Temperature  
Mean Temperature 60 °F 65 °F  
Max Temperature 68 °F 78 °F 87 °F (1987)
Min Temperature 53 °F 53 °F 33 °F (1973)
Degree Days  
Heating Degree Days 4 0  
Month to date heating degree days 1  
Since 1 June heating degree days 146  
Since 1 July heating degree days 1  
Cooling Degree Days 0 3  
Month to date cooling degree days 30  
Year to date cooling degree days 80  
Since 1 June cooling degree days 70  
Growing Degree Days 10 (Base 50)    
Moisture  
Dew Point 57 °F    
Average Humidity 87    
Maximum Humidity 100    
Minimum Humidity 64    
Precipitation  
Precipitation 0.00 in 0.14 in 2.40 in (1990)
Month to date precipitation 1.63  
Year to date precipitation 23.28  
Sea Level Pressure  
Sea Level Pressure 30.16 in    
Wind  
Wind Speed 5 mph (NE)    
Max Wind Speed 9 mph    
Max Gust Speed 16 mph    
Visibility 9 miles    
Events      
T = Trace of Precipitation, MM = Missing Value Source: NWS Daily Summary

Daily Weather History Graph

Daily Weather History Graph

Search for Another Location

Airport or City:

Trip Planner

Search our weather history database for the weather conditions in past years. The results will help you decide how hot, cold, wet, or windy it might be!

Date:

Astronomy

Jul. 12, 2013 Rise Set
Actual Time 5:48 AM EDT 8:49 PM EDT
Civil Twilight 5:14 AM EDT 9:23 PM EDT
Nautical Twilight 4:31 AM EDT 10:06 PM EDT
Astronomical Twilight 3:40 AM EDT 10:56 PM EDT
Moon 10:08 AM EDT (7/12) 10:52 PM EDT (7/12)
Length of Visible Light 16h 08m
Length of Day
15h 01m
Waxing Crescent, 17% of the Moon is Illuminated
Jul 12
Waxing Crescent
Jul 15
First Quarter
Jul 22
Full
Jul 29
Last Quarter
Aug 6
New

Hourly Weather History & Observations

Time (EDT) Temp. Dew Point Humidity Pressure Visibility Wind Dir Wind Speed Gust Speed Precip Events Conditions
12:15 AM 59.0 °F 55.4 °F 88% 30.08 in 10.0 mi North 4.6 mph - N/A   Clear
12:35 AM 59.0 °F 55.4 °F 88% 30.08 in 10.0 mi North 4.6 mph - N/A   Clear
12:55 AM 59.0 °F 55.4 °F 88% 30.08 in 10.0 mi North 3.5 mph - N/A   Clear
1:15 AM 59.0 °F 55.4 °F 88% 30.08 in 10.0 mi North 4.6 mph - N/A   Clear
1:35 AM 57.2 °F 55.4 °F 94% 30.07 in 10.0 mi North 4.6 mph - N/A   Clear
1:55 AM 57.2 °F 55.4 °F 94% 30.07 in 10.0 mi North 3.5 mph - N/A   Clear
2:15 AM 57.2 °F 55.4 °F 94% 30.08 in 10.0 mi North 3.5 mph - N/A   Clear
2:35 AM 55.4 °F 55.4 °F 100% 30.09 in 10.0 mi NNE 3.5 mph - N/A   Clear
2:55 AM 57.2 °F 55.4 °F 94% 30.09 in 10.0 mi NNE 4.6 mph - N/A   Clear
3:15 AM 57.2 °F 55.4 °F 94% 30.10 in 10.0 mi Calm Calm - N/A   Clear
3:35 AM 57.2 °F 55.4 °F 94% 30.10 in 10.0 mi North 3.5 mph - N/A   Clear
3:55 AM 57.2 °F 55.4 °F 94% 30.09 in 10.0 mi North 5.8 mph - N/A   Clear
4:15 AM 57.2 °F 55.4 °F 94% 30.10 in 10.0 mi Calm Calm - N/A   Clear
4:35 AM 55.4 °F 55.4 °F 100% 30.11 in 10.0 mi Calm Calm - N/A   Clear
4:55 AM 55.4 °F 55.4 °F 100% 30.11 in 7.0 mi Calm Calm - N/A   Clear
5:15 AM 55.4 °F 55.4 °F 100% 30.12 in 7.0 mi Calm Calm - N/A   Clear
5:35 AM 55.4 °F 55.4 °F 100% 30.12 in 5.0 mi East 3.5 mph - N/A   Clear
5:55 AM 53.6 °F 53.6 °F 100% 30.12 in 1.0 mi ENE 3.5 mph - N/A   Scattered Clouds
6:15 AM 53.6 °F 53.6 °F 100% 30.13 in 5.0 mi ENE 3.5 mph - N/A   Clear
6:35 AM 55.4 °F 55.4 °F 100% 30.13 in 5.0 mi ENE 3.5 mph - N/A   Clear
6:55 AM 55.4 °F 55.4 °F 100% 30.14 in 5.0 mi ENE 3.5 mph - N/A   Clear
7:15 AM 55.4 °F 55.4 °F 100% 30.15 in 7.0 mi ENE 3.5 mph - N/A   Clear
7:35 AM 57.2 °F 55.4 °F 94% 30.14 in 7.0 mi Calm Calm - N/A   Clear
7:55 AM 57.2 °F 55.4 °F 94% 30.15 in 10.0 mi East 4.6 mph - N/A   Clear
8:15 AM 59.0 °F 55.4 °F 88% 30.15 in 10.0 mi ENE 3.5 mph - N/A   Clear
8:35 AM 59.0 °F 57.2 °F 94% 30.16 in 10.0 mi ENE 3.5 mph - N/A   Clear
8:55 AM 59.0 °F 57.2 °F 94% 30.16 in 10.0 mi NE 4.6 mph - N/A   Clear
9:15 AM 60.8 °F 59.0 °F 94% 30.17 in 10.0 mi ENE 4.6 mph - N/A   Clear
9:35 AM 60.8 °F 59.0 °F 94% 30.17 in 10.0 mi ENE 4.6 mph - N/A   Clear
9:55 AM 60.8 °F 59.0 °F 94% 30.17 in 10.0 mi ENE 4.6 mph - N/A   Clear
10:15 AM 60.8 °F 59.0 °F 94% 30.17 in 10.0 mi ENE 6.9 mph - N/A   Scattered Clouds
10:35 AM 60.8 °F 59.0 °F 94% 30.17 in 10.0 mi ENE 5.8 mph - N/A   Clear
10:55 AM 60.8 °F 59.0 °F 94% 30.18 in 10.0 mi NE 4.6 mph - N/A   Clear
11:15 AM 62.6 °F 59.0 °F 88% 30.18 in 10.0 mi NE 5.8 mph - N/A   Clear
11:35 AM 62.6 °F 59.0 °F 88% 30.18 in 10.0 mi NE 5.8 mph - N/A   Clear
11:55 AM 64.4 °F 59.0 °F 83% 30.18 in 10.0 mi NE 4.6 mph - N/A   Clear
12:15 PM 64.4 °F 59.0 °F 83% 30.18 in 10.0 mi ENE 6.9 mph - N/A   Scattered Clouds
12:35 PM 64.4 °F 59.0 °F 83% 30.19 in 10.0 mi ENE 6.9 mph - N/A   Scattered Clouds
12:55 PM 66.2 °F 59.0 °F 78% 30.19 in 10.0 mi East 6.9 mph - N/A   Scattered Clouds
1:15 PM 66.2 °F 59.0 °F 78% 30.19 in 10.0 mi ESE 9.2 mph - N/A   Clear
1:35 PM 68.0 °F 59.0 °F 73% 30.19 in 10.0 mi East 6.9 mph - N/A   Scattered Clouds
1:55 PM 68.0 °F 57.2 °F 68% 30.18 in 10.0 mi East 5.8 mph - N/A   Scattered Clouds
2:15 PM 68.0 °F 57.2 °F 68% 30.18 in 10.0 mi ENE 8.1 mph - N/A   Clear
2:35 PM 68.0 °F 57.2 °F 68% 30.18 in 10.0 mi ENE 9.2 mph - N/A   Clear
2:55 PM 68.0 °F 55.4 °F 64% 30.19 in 10.0 mi ENE 9.2 mph 16.1 mph N/A   Clear
3:15 PM 66.2 °F 55.4 °F 68% 30.18 in 10.0 mi NE 8.1 mph - N/A   Clear
3:35 PM 66.2 °F 57.2 °F 73% 30.18 in 10.0 mi NNE 6.9 mph - N/A   Clear
3:55 PM 66.2 °F 59.0 °F 78% 30.18 in 10.0 mi NE 8.1 mph - N/A   Scattered Clouds
4:15 PM 66.2 °F 59.0 °F 78% 30.17 in 10.0 mi NE 6.9 mph - N/A   Clear
4:35 PM 66.2 °F 59.0 °F 78% 30.17 in 10.0 mi NE 8.1 mph - N/A   Clear
4:55 PM 64.4 °F 57.2 °F 77% 30.18 in 10.0 mi ENE 8.1 mph - N/A   Clear
5:15 PM 64.4 °F 57.2 °F 77% 30.17 in 10.0 mi ENE 4.6 mph - N/A   Clear
5:35 PM 64.4 °F 59.0 °F 83% 30.17 in 10.0 mi NE 5.8 mph - N/A   Clear
5:55 PM 64.4 °F 59.0 °F 83% 30.17 in 10.0 mi NE 5.8 mph - N/A   Clear
6:15 PM 64.4 °F 59.0 °F 83% 30.17 in 10.0 mi NE 4.6 mph - N/A   Clear
6:35 PM 62.6 °F 59.0 °F 88% 30.17 in 10.0 mi NE 4.6 mph - N/A   Clear
6:55 PM 62.6 °F 57.2 °F 82% 30.18 in 10.0 mi NE 6.9 mph - N/A   Clear
7:15 PM 62.6 °F 59.0 °F 88% 30.17 in 10.0 mi NNE 5.8 mph - N/A   Clear
7:35 PM 62.6 °F 59.0 °F 88% 30.18 in 10.0 mi NE 4.6 mph - N/A   Clear
7:55 PM 62.6 °F 55.4 °F 77% 30.18 in 10.0 mi ENE 6.9 mph - N/A   Clear
8:15 PM 62.6 °F 55.4 °F 77% 30.18 in 10.0 mi NE 5.8 mph - N/A   Clear
8:35 PM 60.8 °F 55.4 °F 82% 30.18 in 10.0 mi NE 5.8 mph - N/A   Clear
8:55 PM 60.8 °F 57.2 °F 88% 30.18 in 10.0 mi NE 6.9 mph - N/A   Clear
9:15 PM 60.8 °F 57.2 °F 88% 30.19 in 10.0 mi NE 5.8 mph - N/A   Clear
9:35 PM 60.8 °F 57.2 °F 88% 30.21 in 10.0 mi NE 4.6 mph - N/A   Clear
9:55 PM 59.0 °F 57.2 °F 94% 30.21 in 10.0 mi NE 4.6 mph - N/A   Clear
10:15 PM 59.0 °F 55.4 °F 88% 30.21 in 10.0 mi ENE 5.8 mph - N/A   Clear
10:35 PM 59.0 °F 55.4 °F 88% 30.21 in 10.0 mi East 4.6 mph - N/A   Clear
10:55 PM 59.0 °F 55.4 °F 88% 30.22 in 10.0 mi NE 3.5 mph - N/A   Clear
11:15 PM 59.0 °F 55.4 °F 88% 30.21 in 10.0 mi ENE 4.6 mph - N/A   Clear
11:35 PM 59.0 °F 55.4 °F 88% 30.21 in 10.0 mi ENE 5.8 mph - N/A   Clear
11:55 PM 59.0 °F 55.4 °F 88% 30.21 in 10.0 mi ENE 5.8 mph - N/A   Clear